Richlands, NC

10:37 AM EST on December 05, 2016 (GMT -0500)
Ellis

Weather History for KOAJ - October, 2012

Change the Weather History Date:

Wednesday, October 31, 2012

  Actual Average Record
Temperature  
Mean Temperature 48 °F -  
Max Temperature 60 °F 67 °F 84 °F (2004)
Min Temperature 37 °F 44 °F 28 °F (2008)
Degree Days  
Heating Degree Days 16    
Moisture  
Dew Point 38 °F    
Average Humidity 66    
Maximum Humidity 93    
Minimum Humidity 39    
Precipitation  
Precipitation 0.00 in - - ()
Sea Level Pressure  
Sea Level Pressure 29.71 in    
Wind  
Wind Speed 7 mph (SW)    
Max Wind Speed 15 mph    
Max Gust Speed 20 mph    
Visibility 10 miles    
Events      
Averages and records for this station are not official NWS values.
T = Trace of Precipitation, MM = Missing Value Source: NWS Daily Summary

Daily Weather History Graph

Daily Weather History Graph

Search for Another Location

Airport or City:

Trip Planner

Search our weather history database for the weather conditions in past years. The results will help you decide how hot, cold, wet, or windy it might be!

Date:

Astronomy

Oct. 31, 2012 Rise Set
Actual Time 7:30 AM EDT 6:16 PM EDT
Civil Twilight 7:04 AM EDT 6:43 PM EDT
Nautical Twilight 6:34 AM EDT 7:12 PM EDT
Astronomical Twilight 6:05 AM EDT 7:42 PM EDT
Moon 7:31 PM EDT (10/31) 9:05 AM EDT (10/31)
Length of Visible Light 11h 38m
Length of Day
10h 46m
Full, 97% of the Moon is Illuminated
Oct 31
Full
Nov 6
Last Quarter
Nov 13
New
Nov 20
First Quarter
Nov 28
Full

Hourly Weather History & Observations

Time (EDT) Temp. Windchill Dew Point Humidity Pressure Visibility Wind Dir Wind Speed Gust Speed Precip Events Conditions
12:15 AM 46.4 °F 42.9 °F 35.6 °F 66% 29.65 in 10.0 mi SW 6.9 mph - N/A   Clear
12:35 AM 46.4 °F 43.5 °F 35.6 °F 66% 29.66 in 10.0 mi SW 5.8 mph - N/A   Clear
12:55 AM 44.6 °F 41.4 °F 35.6 °F 71% 29.66 in 10.0 mi SW 5.8 mph - N/A   Clear
1:15 AM 44.6 °F 41.4 °F 35.6 °F 71% 29.67 in 10.0 mi SW 5.8 mph - N/A   Clear
1:35 AM 42.8 °F 39.3 °F 35.6 °F 76% 29.67 in 10.0 mi SW 5.8 mph - N/A   Clear
1:55 AM 42.8 °F 39.3 °F 35.6 °F 76% 29.67 in 10.0 mi SW 5.8 mph - N/A   Clear
2:15 AM 42.8 °F 38.6 °F 35.6 °F 76% 29.67 in 10.0 mi SSW 6.9 mph - N/A   Clear
2:35 AM 41.0 °F 37.1 °F 35.6 °F 81% 29.67 in 10.0 mi SW 5.8 mph - N/A   Clear
2:55 AM 41.0 °F 36.4 °F 35.6 °F 81% 29.68 in 10.0 mi SSW 6.9 mph - N/A   Clear
3:15 AM 41.0 °F 36.4 °F 35.6 °F 81% 29.68 in 10.0 mi SW 6.9 mph - N/A   Clear
3:35 AM 42.8 °F 38.6 °F 35.6 °F 76% 29.68 in 10.0 mi SW 6.9 mph - N/A   Clear
3:55 AM 42.8 °F 38.6 °F 35.6 °F 76% 29.68 in 10.0 mi SW 6.9 mph - N/A   Clear
4:15 AM 42.8 °F 38.6 °F 35.6 °F 76% 29.69 in 10.0 mi SW 6.9 mph - N/A   Clear
4:35 AM 42.8 °F 38.0 °F 35.6 °F 76% 29.69 in 10.0 mi SW 8.1 mph - N/A   Clear
4:55 AM 41.0 °F 36.4 °F 35.6 °F 81% 29.69 in 10.0 mi SW 6.9 mph - N/A   Clear
5:35 AM 39.2 °F 35.0 °F 35.6 °F 87% 29.70 in 10.0 mi SW 5.8 mph - N/A   Clear
5:55 AM 39.2 °F 35.9 °F 35.6 °F 87% 29.70 in 10.0 mi SW 4.6 mph - N/A   Clear
6:15 AM 39.2 °F 35.0 °F 35.6 °F 87% 29.71 in 10.0 mi SSW 5.8 mph - N/A   Clear
6:35 AM 37.4 °F 32.8 °F 35.6 °F 93% 29.71 in 10.0 mi SSW 5.8 mph - N/A   Clear
6:55 AM 37.4 °F 33.8 °F 35.6 °F 93% 29.71 in 10.0 mi SSW 4.6 mph - N/A   Mostly Cloudy
7:15 AM 39.2 °F 35.9 °F 35.6 °F 87% 29.71 in 10.0 mi SSW 4.6 mph - N/A   Overcast
7:35 AM 39.2 °F 35.0 °F 35.6 °F 87% 29.72 in 10.0 mi SW 5.8 mph - N/A   Mostly Cloudy
7:55 AM 41.0 °F 37.1 °F 35.6 °F 81% 29.73 in 10.0 mi SSW 5.8 mph - N/A   Partly Cloudy
8:15 AM 44.6 °F 40.2 °F 37.4 °F 76% 29.73 in 10.0 mi SW 8.1 mph - N/A   Clear
8:35 AM 44.6 °F 41.4 °F 35.6 °F 71% 29.73 in 10.0 mi SW 5.8 mph - N/A   Clear
8:55 AM 44.6 °F 40.7 °F 37.4 °F 76% 29.74 in 10.0 mi SSW 6.9 mph - N/A   Clear
9:15 AM 46.4 °F 41.1 °F 37.4 °F 71% 29.74 in 10.0 mi SW 11.5 mph 16.1 mph N/A   Clear
9:35 AM 48.2 °F - 37.4 °F 66% 29.74 in 10.0 mi SW 10.4 mph 16.1 mph N/A   Clear
9:55 AM 50.0 °F - 37.4 °F 62% 29.74 in 10.0 mi WSW 10.4 mph - N/A   Clear
10:15 AM 51.8 °F - 37.4 °F 58% 29.75 in 10.0 mi WSW 8.1 mph - N/A   Clear
10:35 AM 51.8 °F - 37.4 °F 58% 29.74 in 10.0 mi SW 8.1 mph - N/A   Clear
10:55 AM 53.6 °F - 35.6 °F 51% 29.73 in 10.0 mi West 9.2 mph - N/A   Clear
11:15 AM 53.6 °F - 35.6 °F 51% 29.73 in 10.0 mi WSW 9.2 mph - N/A   Clear
11:35 AM 53.6 °F - 35.6 °F 51% 29.72 in 10.0 mi WSW 5.8 mph 16.1 mph N/A   Clear
11:55 AM 55.4 °F - 35.6 °F 47% 29.72 in 10.0 mi SW 11.5 mph 18.4 mph N/A   Clear
12:15 PM 55.4 °F - 35.6 °F 47% 29.71 in 10.0 mi WSW 10.4 mph 17.3 mph N/A   Clear
12:35 PM 55.4 °F - 35.6 °F 47% 29.70 in 10.0 mi WSW 8.1 mph 18.4 mph N/A   Clear
12:55 PM 57.2 °F - 35.6 °F 44% 29.69 in 10.0 mi SW 10.4 mph - N/A   Clear
1:15 PM 59.0 °F - 37.4 °F 45% 29.69 in 10.0 mi SW 10.4 mph 17.3 mph N/A   Clear
1:35 PM 59.0 °F - 35.6 °F 42% 29.68 in 10.0 mi SW 13.8 mph 19.6 mph N/A   Partly Cloudy
1:55 PM 59.0 °F - 35.6 °F 42% 29.68 in 10.0 mi WSW 9.2 mph 16.1 mph N/A   Partly Cloudy
2:15 PM 60.8 °F - 35.6 °F 39% 29.67 in 10.0 mi SW 13.8 mph 18.4 mph N/A   Partly Cloudy
2:35 PM 60.8 °F - 35.6 °F 39% 29.67 in 10.0 mi WSW 9.2 mph 16.1 mph N/A   Partly Cloudy
2:55 PM 60.8 °F - 35.6 °F 39% 29.66 in 10.0 mi SW 15.0 mph 18.4 mph N/A   Partly Cloudy
3:15 PM 59.0 °F - 35.6 °F 42% 29.67 in 10.0 mi SW 15.0 mph 19.6 mph N/A   Mostly Cloudy
3:35 PM 59.0 °F - 35.6 °F 42% 29.67 in 10.0 mi WSW 15.0 mph 19.6 mph N/A   Mostly Cloudy
3:55 PM 60.8 °F - 37.4 °F 42% 29.67 in 10.0 mi SW 15.0 mph - N/A   Partly Cloudy
4:15 PM 59.0 °F - 37.4 °F 45% 29.67 in 10.0 mi SW 12.7 mph 16.1 mph N/A   Clear
4:35 PM 57.2 °F - 37.4 °F 48% 29.67 in 10.0 mi WSW 10.4 mph - N/A   Clear
4:55 PM 57.2 °F - 37.4 °F 48% 29.68 in 10.0 mi WSW 10.4 mph 18.4 mph N/A   Clear
5:15 PM 57.2 °F - 37.4 °F 48% 29.68 in 10.0 mi WSW 12.7 mph - N/A   Mostly Cloudy
5:35 PM 57.2 °F - 39.2 °F 51% 29.69 in 10.0 mi WSW 6.9 mph - N/A   Overcast
5:55 PM 55.4 °F - 39.2 °F 54% 29.71 in 10.0 mi WSW 8.1 mph - N/A   Overcast
6:15 PM 55.4 °F - 39.2 °F 54% 29.72 in 10.0 mi WSW 4.6 mph - N/A   Overcast
6:35 PM 55.4 °F - 39.2 °F 54% 29.73 in 10.0 mi West 6.9 mph - N/A   Overcast
6:55 PM 53.6 °F - 37.4 °F 54% 29.74 in 10.0 mi Calm Calm - N/A   Overcast
7:15 PM 53.6 °F - 37.4 °F 54% 29.75 in 10.0 mi West 3.5 mph - N/A   Overcast
7:35 PM 53.6 °F - 37.4 °F 54% 29.75 in 10.0 mi Calm Calm - N/A   Overcast
8:15 PM 51.8 °F - 42.8 °F 71% 29.76 in 10.0 mi Calm Calm - N/A   Overcast
8:35 PM 51.8 °F - 44.6 °F 76% 29.76 in 10.0 mi Calm Calm - N/A   Overcast
8:55 PM 50.0 °F - 42.8 °F 76% 29.77 in 10.0 mi Calm Calm - N/A   Overcast
9:15 PM 51.8 °F - 44.6 °F 76% 29.77 in 10.0 mi Calm Calm - N/A   Overcast
9:35 PM 50.0 °F - 44.6 °F 82% 29.78 in 10.0 mi Calm Calm - N/A   Overcast
9:55 PM 50.0 °F - 46.4 °F 87% 29.78 in 10.0 mi Calm Calm - N/A   Overcast
10:15 PM 48.2 °F - 44.6 °F 87% 29.79 in 10.0 mi SW 3.5 mph - N/A   Overcast
10:35 PM 48.2 °F - 42.8 °F 82% 29.79 in 10.0 mi Calm Calm - N/A   Overcast
10:55 PM 48.2 °F - 42.8 °F 82% 29.80 in 10.0 mi WSW 4.6 mph - N/A   Scattered Clouds
11:15 PM 46.4 °F 45.2 °F 41.0 °F 81% 29.80 in 10.0 mi WSW 3.5 mph - N/A   Clear
11:35 PM 44.6 °F 43.1 °F 41.0 °F 87% 29.80 in 10.0 mi WSW 3.5 mph - N/A   Clear
11:55 PM 44.6 °F - 39.2 °F 81% 29.80 in 10.0 mi Calm Calm - N/A   Clear